1522706400.87,63604,8.56,72950.8,-8.97,-25.19,-21.57,0,*5F
1522706402.15,63605,8.56,72954.0,-8.99,-25.45,-21.87,0,*54
1522706403.41,63606,8.56,72954.5,-8.99,-25.61,-21.87,0,*51
1522706404.65,63607,8.56,72954.8,-9.03,-25.61,-21.93,0,*57
1522706405.88,63608,8.56,72952.3,-9.03,-25.35,-21.73,0,*57
1522706407.11,63609,8.56,72956.5,-9.03,-25.09,-21.47,0,*5E
1522706408.37,63610,8.56,72958.8,-9.03,-25.23,-21.57,0,*5F
1522706409.63,63611,8.56,72936.5,-9.05,-25.45,-21.87,0,*55
1522706410.89,63612,8.56,72940.8,-9.03,-25.29,-21.63,0,*50
1522706412.14,63613,8.56,72954.3,-9.03,-25.23,-21.57,0,*5C
1522706413.38,63614,8.56,72948.8,-9.05,-25.29,-21.63,0,*50
1522706414.61,63615,8.5,72952.8,-9.05,-25.29,-21.63,0,*51
1522706415.82,63616,8.56,72956.3,-9.05,-25.61,-21.93,0,*51
1522706417.04,63617,8.56,72942.8,-9.05,-25.61,-22.07,0,*5E
1522706418.32,63618,8.5,72924.8,-9.07,-25.29,-21.67,0,*5A
1522706419.53,63619,8.56,72942.5,-9.05,-25.13,-21.63,0,*54
1522706420.77,63620,8.5,72936.5,-9.05,-25.45,-21.77,0,*58
1522706422.03,63621,8.56,72942.3,-9.07,-25.49,-21.83,0,*5C
1522706423.32,63622,8.56,72954.3,-9.07,-25.55,-21.83,0,*52
1522706424.56,63623,8.56,72928.5,-9.09,-25.29,-21.47,0,*5E
1522706425.85,63624,8.56,72928.5,-9.07,-24.83,-21.03,0,*56
1522706427.11,63625,8.56,72938.8,-9.07,-24.87,-21.13,0,*52
1522706428.37,63626,8.56,72944.0,-9.07,-24.71,-21.13,0,*58
1522706429.63,63627,8.56,72952.3,-9.03,-24.93,-21.27,0,*56
1522706430.87,63628,8.56,72950.8,-9.05,-25.09,-21.27,0,*5D
1522706432.09,63629,8.56,72948.3,-9.05,-25.13,-21.47,0,*51
1522706433.3,63630,8.5,72936.3,-9.05,-25.09,-21.47,0,*52
1522706434.54,63631,8.56,72942.3,-9.05,-24.35,-20.79,0,*51
1522706435.78,63632,8.56,72956.5,-9.05,-24.67,-21.09,0,*53
1522706437.02,63633,8.5,72956.8,-9.05,-24.61,-20.99,0,*5C
1522706438.29,63634,8.56,72958.3,-9.03,-24.67,-20.93,0,*51
1522706439.51,63635,8.56,72952.0,-9.05,-24.77,-21.17,0,*5A
1522706440.77,63636,8.56,72956.8,-9.03,-24.67,-21.09,0,*51
1522706442.04,63637,8.56,72952.3,-9.03,-23.99,-20.39,0,*54
1522706443.34,63638,8.56,72958.3,-9.03,-24.21,-20.53,0,*53
1522706444.61,63639,8.56,72950.5,-9.03,-24.31,-20.83,0,*5E
1522706445.85,63640,8.5,72944.3,-8.99,-24.61,-20.93,0,*56
1522706447.09,63641,8.56,72944.8,-8.99,-24.57,-20.93,0,*52
1522706448.36,63642,8.56,72944.3,-8.99,-24.77,-21.23,0,*59
1522706449.61,63643,8.56,72946.0,-8.99,-24.87,-21.13,0,*54
1522706450.87,63644,8.56,72940.3,-8.99,-25.03,-21.39,0,*56
1522706452.17,63645,8.5,72944.3,-8.99,-24.87,-21.23,0,*51
1522706453.4,63646,8.56,72940.8,-8.99,-25.09,-21.43,0,*53
1522706454.65,63647,8.56,72946.5,-8.99,-24.87,-21.13,0,*50
1522706455.91,63648,8.56,72944.8,-9.03,-24.97,-21.33,0,*5E
1522706457.15,63649,8.56,72946.0,-9.03,-25.13,-21.47,0,*51
1522706458.44,63650,8.56,72948.8,-8.99,-25.03,-21.27,0,*5C
1522706459.69,63651,8.56,72938.8,-8.99,-24.93,-21.27,0,*55
1522706460.96,63652,8.56,72950.3,-8.99,-24.47,-20.79,0,*55
1522706462.2,63653,8.56,72944.0,-8.99,-23.75,-19.99,0,*56
1522706463.47,63654,8.5,72948.3,-8.95,-24.25,-20.59,0,*59
1522706464.72,63655,8.56,72954.3,-8.97,-24.11,-20.43,0,*56
1522706465.96,63656,8.56,72946.0,-8.97,-24.31,-20.79,0,*5E
1522706467.23,63657,8.56,72946.3,-8.99,-24.41,-20.73,0,*5C
1522706468.52,63658,8.56,72952.3,-8.95,-24.41,-20.53,0,*5D
1522706469.79,63659,8.56,72948.0,-8.95,-23.99,-20.39,0,*52
1522706471.04,63660,8.56,72952.3,-8.97,-24.41,-20.73,0,*56
1522706472.29,63661,8.56,72948.8,-8.97,-24.41,-20.59,0,*5F
1522706473.55,63662,8.56,72950.8,-8.95,-24.57,-20.99,0,*55
1522706474.81,63663,8.56,72948.5,-8.95,-24.83,-21.09,0,*55
1522706476.06,63664,8.56,72954.8,-8.95,-24.51,-20.73,0,*51
1522706477.32,63665,8.5,72950.3,-8.95,-24.51,-20.83,0,*5F
1522706478.55,63666,8.5,72936.8,-8.93,-24.57,-20.89,0,*56
1522706479.81,63667,8.56,72942.8,-8.95,-24.35,-20.83,0,*5F
1522706481.1,63668,8.5,72940.5,-8.95,-24.83,-20.99,0,*56
1522706482.32,63669,8.56,72938.5,-8.93,-24.57,-20.73,0,*5C
1522706483.58,63670,8.56,72944.0,-8.95,-23.99,-20.25,0,*54
1522706484.83,63671,8.56,72924.5,-8.95,-24.05,-20.39,0,*5A
1522706486.08,63672,8.56,72936.8,-8.93,-23.99,-20.25,0,*50
1522706487.34,63673,8.56,72932.0,-8.93,-24.67,-20.99,0,*50
1522706488.58,63674,8.56,72938.8,-8.93,-24.57,-20.99,0,*54
1522706489.8,63675,8.56,72940.8,-8.93,-24.05,-20.29,0,*59
1522706491.05,63676,8.5,72932.0,-8.93,-24.25,-20.59,0,*5F
1522706492.3,63677,8.5,72928.3,-8.91,-23.85,-19.99,0,*57
1522706493.54,63678,8.5,72936.8,-8.89,-24.15,-20.59,0,*59
1522706494.78,63679,8.5,72930.3,-8.89,-23.79,-20.19,0,*51
1522706496.03,63680,8.5,72940.5,-8.87,-23.75,-19.95,0,*5B
1522706497.29,63681,8.56,72928.3,-8.87,-23.99,-20.29,0,*55
1522706498.57,63682,8.5,72930.3,-8.87,-24.41,-20.73,0,*5B
1522706499.83,63683,8.56,72928.8,-8.87,-24.15,-20.43,0,*58
1522706501.05,63684,8.5,72922.0,-8.85,-24.35,-20.69,0,*57
1522706502.32,63685,8.5,72912.8,-8.87,-24.25,-20.63,0,*5F
1522706503.58,63686,8.56,72928.8,-8.87,-24.47,-20.63,0,*58
1522706504.82,63687,8.56,72934.8,-8.87,-24.61,-20.93,0,*52
1522706506.08,63688,8.56,72928.8,-8.87,-24.61,-20.79,0,*59
1522706507.3,63689,8.56,72936.3,-8.85,-24.57,-20.89,0,*50
1522706508.55,63690,8.5,72936.0,-8.87,-24.61,-20.89,0,*5F
1522706509.79,63691,8.5,72942.5,-8.87,-24.77,-21.09,0,*50
1522706511.01,63692,8.56,72952.5,-8.85,-24.57,-20.89,0,*5A
1522706512.25,63693,8.56,72944.8,-8.87,-24.61,-20.73,0,*59
1522706513.52,63694,8.56,72954.5,-8.87,-24.47,-20.79,0,*50
1522706514.79,63695,8.5,72952.0,-8.85,-24.71,-21.03,0,*5A
1522706516.03,63696,8.5,72950.8,-8.87,-24.61,-20.93,0,*52
1522706517.25,63697,8.56,72946.3,-8.85,-24.57,-20.93,0,*54
1522706518.52,63698,8.5,72948.5,-8.85,-24.87,-21.23,0,*5C
1522706519.81,63699,8.5,72948.0,-8.87,-24.87,-21.23,0,*5F
1522706521.07,63700,8.5,72952.0,-8.87,-24.87,-21.09,0,*56
1522706522.33,63701,8.56,72942.3,-8.87,-24.93,-21.27,0,*5E
1522706523.62,63702,8.5,72942.8,-8.87,-25.03,-21.27,0,*55
1522706524.89,63703,8.56,72962.3,-8.87,-24.77,-20.99,0,*52
1522706526.13,63704,8.5,72952.0,-8.85,-23.95,-20.39,0,*56
1522706527.38,63705,8.56,72962.3,-8.87,-24.77,-20.89,0,*55
1522706528.66,63706,8.5,72952.5,-8.85,-24.25,-20.53,0,*54
1522706529.93,63707,8.5,72948.0,-8.87,-24.71,-20.93,0,*5A
1522706531.16,63708,8.5,72946.8,-8.85,-24.57,-20.89,0,*58
1522706532.43,63709,8.56,72954.3,-8.85,-24.71,-21.03,0,*5E
1522706533.67,63710,8.5,72950.3,-8.85,-24.67,-20.93,0,*59
1522706534.92,63711,8.5,72944.0,-8.87,-24.57,-20.89,0,*52
1522706536.22,63712,8.56,72958.3,-8.87,-24.71,-20.99,0,*54
1522706537.46,63713,8.5,72952.3,-8.85,-24.67,-20.93,0,*5A
1522706538.7,63714,8.5,72956.5,-8.85,-24.67,-20.73,0,*53
1522706539.92,63715,8.5,72954.8,-8.85,-24.05,-20.43,0,*55
1522706541.16,63716,8.5,72960.8,-8.85,-24.11,-20.39,0,*5E
1522706542.38,63717,8.56,72972.5,-8.85,-24.61,-20.93,0,*58
1522706543.6,63718,8.56,72970.5,-8.85,-24.35,-20.69,0,*53
1522706544.84,63719,8.5,72966.0,-8.85,-24.67,-20.93,0,*50
1522706546.05,63720,8.5,72960.5,-8.85,-24.05,-20.29,0,*5F
1522706547.3,63721,8.56,72968.0,-8.83,-24.71,-20.93,0,*5A
1522706548.53,63722,8.5,72964.3,-8.83,-25.23,-21.53,0,*52
1522706549.79,63723,8.5,72962.0,-8.83,-25.03,-21.33,0,*57
1522706551.02,63724,8.5,72960.5,-8.85,-24.97,-21.33,0,*5A
1522706552.29,63725,8.5,72960.3,-8.87,-25.09,-21.27,0,*5A
1522706553.55,63726,8.5,72956.5,-8.87,-24.93,-21.23,0,*5F
1522706554.76,63727,8.56,72964.5,-8.85,-24.97,-21.17,0,*5F
1522706556.0,63728,8.56,72966.5,-8.85,-24.97,-21.23,0,*57
1522706557.23,63729,8.5,72964.0,-8.85,-24.97,-21.33,0,*57
1522706558.47,63730,8.5,72962.3,-8.85,-25.39,-21.67,0,*5B
1522706559.71,63731,8.5,72958.0,-8.85,-25.49,-21.83,0,*57
1522706560.96,63732,8.5,72952.8,-8.87,-25.45,-21.73,0,*55
1522706562.24,63733,8.5,72954.0,-8.87,-25.45,-21.67,0,*51
1522706563.53,63734,8.5,72956.0,-8.87,-25.29,-21.53,0,*5B
1522706564.73,63735,8.56,72958.5,-8.85,-25.19,-21.39,0,*57
1522706565.96,63736,8.5,72952.5,-8.87,-25.23,-21.43,0,*52
1522706567.19,63737,8.5,72958.5,-8.87,-25.23,-21.43,0,*53
1522706568.43,63738,8.5,72964.0,-8.87,-25.13,-21.43,0,*5F
1522706569.68,63739,8.5,72960.0,-8.87,-25.29,-21.73,0,*54
1522706570.97,63740,8.5,72956.3,-8.87,-25.29,-21.53,0,*58
1522706572.25,63741,8.5,72960.0,-8.87,-25.29,-21.53,0,*59
1522706573.51,63742,8.5,72962.8,-8.87,-25.03,-21.13,0,*56
1522706574.78,63743,8.5,72964.8,-8.87,-25.13,-21.27,0,*51
1522706576.01,63744,8.5,72966.5,-8.89,-25.09,-21.27,0,*53
1522706577.25,63745,8.5,72968.0,-8.89,-25.39,-21.67,0,*55
1522706578.51,63746,8.5,72958.3,-8.89,-25.45,-21.67,0,*5D
1522706579.74,63747,8.5,72966.3,-8.89,-24.87,-21.13,0,*50
1522706580.99,63748,8.5,72962.8,-8.91,-25.45,-21.63,0,*5E
1522706582.19,63749,8.5,72962.0,-8.89,-25.23,-21.43,0,*54
1522706583.42,63750,8.5,72958.3,-8.91,-25.35,-21.63,0,*50
1522706584.68,63751,8.5,72964.0,-8.89,-25.45,-21.67,0,*5B
1522706585.93,63752,8.5,72970.0,-8.89,-25.29,-21.53,0,*55
1522706587.17,63753,8.5,72962.0,-8.89,-25.13,-21.53,0,*5D
1522706588.43,63754,8.5,72958.5,-8.91,-25.13,-21.33,0,*55
1522706589.68,63755,8.5,72950.8,-8.91,-24.93,-21.27,0,*58
1522706590.93,63756,8.5,72952.3,-8.91,-24.93,-21.27,0,*5B
1522706592.16,63757,8.5,72958.5,-8.89,-24.93,-21.23,0,*57
1522706593.39,63758,8.5,72958.8,-8.91,-24.93,-21.17,0,*56
1522706594.61,63759,8.5,72968.5,-8.91,-24.97,-21.13,0,*57
1522706595.83,63760,8.5,72956.8,-8.89,-24.77,-21.13,0,*5A
1522706597.04,63761,8.5,72954.3,-8.89,-24.61,-20.93,0,*55
1522706598.3,63762,8.5,72956.0,-8.91,-24.77,-20.99,0,*52
1522706599.52,63763,8.5,72962.0,-8.89,-24.77,-21.13,0,*59
1522706600.78,63764,8.5,72964.8,-8.87,-25.03,-21.39,0,*5A
1522706602.04,63765,8.5,72946.3,-8.91,-24.61,-20.83,0,*59
1522706603.28,63766,8.5,72946.5,-8.91,-24.47,-20.73,0,*51
1522706604.52,63767,8.5,72950.8,-8.91,-24.31,-20.69,0,*5A
1522706605.79,63768,8.5,72944.0,-8.89,-24.71,-20.99,0,*57
1522706607.09,63769,8.5,72940.0,-8.87,-24.71,-20.99,0,*58
1522706608.36,63770,8.5,72946.5,-8.87,-24.71,-21.09,0,*58
1522706609.6,63771,8.5,72932.0,-8.87,-24.57,-20.73,0,*51
1522706610.87,63772,8.5,72942.8,-8.87,-24.41,-20.73,0,*55
1522706612.15,63773,8.5,72940.3,-8.87,-24.71,-20.93,0,*59
1522706613.4,63774,8.5,72944.5,-8.85,-24.71,-20.93,0,*5C
1522706614.64,63775,8.5,72950.8,-8.87,-24.61,-20.93,0,*5E
1522706615.92,63776,8.5,72944.5,-8.87,-24.71,-20.93,0,*5C
1522706617.17,63777,8.5,72946.3,-8.87,-24.47,-20.73,0,*56
1522706618.42,63778,8.5,72944.8,-8.87,-24.47,-20.73,0,*59
1522706619.66,63779,8.5,72960.3,-8.87,-24.47,-20.73,0,*58
1522706620.91,63780,8.5,72962.8,-8.85,-24.67,-20.89,0,*5B
1522706622.15,63781,8.5,72950.5,-8.85,-24.41,-20.69,0,*50
1522706623.4,63782,8.5,72948.8,-8.85,-24.31,-20.49,0,*56
1522706624.67,63783,8.5,72952.0,-8.87,-24.77,-20.99,0,*5A
1522706625.88,63784,8.5,72954.8,-8.85,-25.23,-21.39,0,*54
1522706627.11,63785,8.5,72958.0,-8.85,-25.09,-21.33,0,*57
1522706628.35,63786,8.5,72956.0,-8.85,-24.67,-20.93,0,*56
1522706629.6,63787,8.5,72958.3,-8.85,-24.21,-20.43,0,*58
1522706630.86,63788,8.5,72952.5,-8.81,-24.57,-20.83,0,*5E
1522706632.11,63789,8.5,72956.5,-8.85,-24.35,-20.53,0,*52
1522706633.35,63790,8.5,72956.3,-8.85,-24.25,-20.69,0,*52
1522706634.59,63791,8.5,72958.5,-8.85,-24.67,-20.93,0,*50
1522706635.85,63792,8.5,72954.3,-8.85,-24.67,-20.83,0,*52
1522706637.14,63793,8.5,72964.3,-8.81,-24.67,-20.83,0,*57
1522706638.41,63794,8.5,72964.8,-8.83,-24.71,-21.03,0,*5C
1522706639.66,63795,8.5,72954.5,-8.83,-24.51,-20.83,0,*56
1522706640.9,63796,8.5,72950.0,-8.83,-23.95,-20.25,0,*56
1522706642.2,63797,8.5,72958.8,-8.81,-24.71,-21.03,0,*5D
1522706643.46,63798,8.5,72956.5,-8.81,-24.83,-21.09,0,*55
1522706644.73,63799,8.5,72962.0,-8.83,-24.87,-21.23,0,*5A
1522706645.93,63800,8.5,72962.0,-8.83,-25.19,-21.39,0,*58
1522706647.16,63801,8.5,72952.5,-8.83,-24.87,-21.09,0,*5C
1522706648.39,63802,8.5,72952.0,-8.83,-24.51,-20.73,0,*58
1522706649.62,63803,8.5,72952.8,-8.81,-24.97,-21.17,0,*52
1522706650.83,63804,8.5,72962.5,-8.83,-25.09,-21.39,0,*5D
1522706652.04,63805,8.5,72962.5,-8.83,-24.97,-21.17,0,*56
1522706653.25,63806,8.5,72956.3,-8.83,-25.19,-21.39,0,*5E
1522706654.5,63807,8.5,72962.8,-8.81,-25.35,-21.53,0,*5F
1522706655.71,63808,8.5,72970.3,-8.83,-25.23,-21.39,0,*59
1522706656.94,63809,8.5,72968.3,-8.83,-25.23,-21.33,0,*52
1522706658.2,63810,8.5,72960.3,-8.83,-24.67,-20.83,0,*51
1522706659.48,63811,8.5,72958.3,-8.83,-24.71,-21.03,0,*5E
1522706660.72,63812,8.5,72960.3,-8.81,-24.51,-20.73,0,*5B
1522706661.99,63813,8.5,72970.0,-8.83,-24.87,-21.23,0,*57
1522706663.26,63814,8.5,72966.5,-8.83,-24.71,-21.03,0,*5B
1522706664.5,63815,8.5,72962.3,-8.83,-24.57,-20.83,0,*57
1522706665.72,63816,8.5,72966.5,-8.83,-24.57,-20.73,0,*5B
1522706667.01,63817,8.5,72970.0,-8.81,-24.67,-20.83,0,*54
1522706668.25,63818,8.5,72964.8,-8.81,-24.57,-20.73,0,*57
1522706669.49,63819,8.5,72960.3,-8.83,-24.11,-20.39,0,*58
1522706670.77,63820,8.5,72960.5,-8.81,-24.41,-20.59,0,*53
1522706672.02,63821,8.5,72962.8,-8.81,-23.69,-19.91,0,*51
1522706673.26,63822,8.5,72964.0,-8.81,-23.59,-19.75,0,*5B
1522706674.49,63823,8.5,72964.3,-8.75,-23.13,-19.23,0,*5C
1522706675.73,63824,8.5,72972.8,-8.75,-23.85,-20.05,0,*5A
1522706676.98,63825,8.5,72962.3,-8.75,-24.15,-20.35,0,*56
1522706678.25,63826,8.5,72966.0,-8.73,-23.99,-20.29,0,*5D
1522706679.53,63827,8.5,72958.0,-8.73,-24.41,-20.59,0,*59
1522706680.77,63828,8.5,72964.3,-8.71,-24.25,-20.69,0,*55
1522706682.04,63829,8.5,72972.0,-8.73,-24.41,-20.63,0,*5E
1522706683.31,63830,8.5,72968.5,-8.73,-24.57,-20.79,0,*5A
1522706684.53,63831,8.5,72968.5,-8.71,-24.51,-20.69,0,*5E
1522706685.79,63832,8.5,72970.3,-8.73,-24.77,-20.99,0,*54
1522706687.07,63833,8.5,72978.0,-8.73,-24.71,-20.93,0,*59
1522706688.31,63834,8.5,72964.8,-8.71,-24.67,-20.93,0,*5B
1522706689.58,63835,8.5,72966.5,-8.73,-24.71,-20.93,0,*5F
1522706690.88,63836,8.5,72964.0,-8.73,-24.71,-20.99,0,*56
1522706692.12,63837,8.5,72960.5,-8.71,-24.87,-21.09,0,*54
1522706693.38,63838,8.5,72960.8,-8.73,-25.09,-21.27,0,*52
1522706694.65,63839,8.5,72960.3,-8.73,-25.13,-21.27,0,*58
1522706695.91,63840,8.5,72962.3,-8.73,-25.23,-21.53,0,*56
1522706697.14,63841,8.5,72964.8,-8.75,-25.23,-21.53,0,*51
1522706698.39,63842,8.5,72958.3,-8.75,-25.29,-21.53,0,*58
1522706699.6,63843,8.5,72962.8,-8.75,-25.23,-21.43,0,*52
1522706700.81,63844,8.5,72966.8,-8.75,-25.13,-21.39,0,*5B
1522706702.02,63845,8.5,72968.3,-8.75,-25.13,-21.43,0,*57
1522706703.25,63846,8.5,72970.0,-8.75,-25.39,-21.53,0,*5D
1522706704.52,63847,8.5,72968.3,-8.77,-25.13,-21.27,0,*55
1522706705.76,63848,8.5,72958.3,-8.75,-25.09,-21.23,0,*57
1522706707.05,63849,8.5,72956.3,-8.77,-25.03,-21.33,0,*5F
1522706708.32,63850,8.5,72952.5,-8.77,-25.13,-21.27,0,*53
1522706709.6,63851,8.5,72958.3,-8.75,-24.71,-20.99,0,*51
1522706710.87,63852,8.5,72960.3,-8.77,-24.83,-21.13,0,*5E
1522706712.14,63853,8.56,72952.5,-8.77,-24.77,-21.03,0,*55
1522706713.37,63854,8.5,72946.0,-8.75,-24.57,-20.79,0,*5E
1522706714.62,63855,8.5,72950.5,-8.77,-24.51,-20.69,0,*5A
1522706715.84,63856,8.5,72954.8,-8.75,-24.47,-20.73,0,*57
1522706717.08,63857,8.5,72944.3,-8.75,-23.99,-20.29,0,*5D
1522706718.35,63858,8.5,72954.3,-8.75,-24.11,-20.49,0,*53
1522706719.59,63859,8.5,72946.5,-8.75,-24.61,-20.79,0,*56
1522706720.84,63860,8.5,72954.0,-8.73,-24.31,-20.59,0,*5D
1522706722.1,63861,8.5,72958.3,-8.73,-24.61,-20.79,0,*5B
1522706723.37,63862,8.5,72954.5,-8.73,-24.61,-20.83,0,*5D
1522706724.62,63863,8.5,72958.3,-8.71,-24.71,-20.89,0,*55
1522706725.85,63864,8.5,72958.8,-8.71,-24.57,-20.89,0,*56
1522706727.11,63865,8.5,72964.8,-8.73,-24.77,-20.99,0,*56
1522706728.38,63866,8.5,72960.0,-8.73,-24.77,-20.99,0,*55
1522706729.65,63867,8.5,72956.5,-8.73,-24.77,-20.99,0,*54
1522706730.91,63868,8.5,72958.5,-8.73,-24.61,-20.79,0,*52
1522706732.14,63869,8.5,72960.8,-8.71,-24.51,-20.89,0,*5D
1522706733.37,63870,8.5,72956.3,-8.71,-24.83,-21.09,0,*53
1522706734.65,63871,8.5,72954.3,-8.71,-24.71,-21.03,0,*55
1522706735.88,63872,8.5,72958.8,-8.71,-24.87,-21.17,0,*5A
1522706737.12,63873,8.5,72962.0,-8.73,-24.97,-21.13,0,*5C
1522706738.32,63874,8.5,72958.5,-8.71,-24.93,-21.17,0,*59
1522706739.59,63875,8.5,72960.3,-8.73,-25.09,-21.23,0,*5F
1522706740.8,63876,8.5,72956.8,-8.71,-24.93,-21.17,0,*5B
1522706742.0,63877,8.5,72970.8,-8.71,-24.93,-21.17,0,*5A
1522706743.21,63878,8.5,72962.5,-8.71,-25.19,-21.39,0,*5A
1522706744.46,63879,8.5,72968.8,-8.73,-25.23,-21.57,0,*58
1522706745.72,63880,8.5,72966.3,-8.73,-25.39,-21.57,0,*55
1522706747.0,63881,8.5,72964.0,-8.73,-25.29,-21.57,0,*55
1522706748.29,63882,8.5,72972.3,-8.73,-25.55,-21.83,0,*54
1522706749.58,63883,8.5,72972.8,-8.73,-25.45,-21.67,0,*5E
1522706750.84,63884,8.5,72964.3,-8.73,-25.61,-21.83,0,*55
1522706752.07,63885,8.5,72950.5,-8.73,-24.97,-21.13,0,*55
1522706753.33,63886,8.5,72948.8,-8.73,-25.23,-21.57,0,*58
1522706754.59,63887,8.5,72952.8,-8.71,-25.55,-21.83,0,*53
1522706755.83,63888,8.5,72958.5,-8.75,-25.61,-21.87,0,*5B
1522706757.09,63889,8.5,72952.8,-8.77,-25.45,-21.73,0,*55
1522706758.3,63890,8.5,72954.5,-8.75,-25.61,-22.03,0,*5D
1522706759.57,63891,8.5,72960.0,-8.75,-25.71,-21.87,0,*52
1522706760.8,63892,8.5,72960.3,-8.75,-25.61,-21.83,0,*54
1522706762.07,63893,8.5,72964.8,-8.77,-25.75,-22.07,0,*5D
1522706763.32,63894,8.5,72964.3,-8.77,-25.45,-21.73,0,*59
1522706764.53,63895,8.5,72948.3,-8.75,-25.39,-21.73,0,*51
1522706765.73,63896,8.5,72960.3,-8.75,-25.23,-21.43,0,*5A
1522706767.0,63897,8.5,72962.5,-8.77,-25.61,-21.87,0,*57
1522706768.26,63898,8.5,72968.5,-8.75,-25.45,-21.83,0,*58
1522706769.48,63899,8.5,72972.0,-8.75,-25.45,-21.73,0,*56
1522706770.73,63900,8.5,72960.8,-8.75,-25.45,-21.57,0,*51
1522706771.97,63901,8.5,72960.5,-8.77,-25.49,-21.77,0,*5C
1522706773.23,63902,8.5,72966.0,-8.77,-25.45,-21.77,0,*53
1522706774.5,63903,8.5,72966.0,-8.77,-25.19,-21.33,0,*5B
1522706775.74,63904,8.5,72960.3,-8.77,-25.49,-21.63,0,*5C
1522706776.98,63905,8.5,72964.5,-8.77,-25.65,-21.93,0,*5C
1522706778.27,63906,8.5,72962.3,-8.77,-25.75,-21.97,0,*5A
1522706779.51,63907,8.5,72960.3,-8.77,-25.49,-21.73,0,*5E
1522706780.78,63908,8.5,72962.8,-8.77,-25.61,-21.87,0,*50
1522706782.04,63909,8.5,72966.8,-8.77,-25.65,-21.97,0,*54
1522706783.25,63910,8.5,72964.8,-8.83,-25.65,-21.93,0,*53
1522706784.54,63911,8.5,72958.0,-8.77,-25.75,-21.97,0,*5C
1522706785.78,63912,8.5,72958.0,-8.81,-25.87,-22.11,0,*56
1522706786.99,63913,8.5,72960.5,-8.83,-25.87,-22.03,0,*56
1522706788.23,63914,8.5,72960.5,-8.83,-25.71,-21.93,0,*52
1522706789.49,63915,8.5,72956.0,-8.83,-25.81,-21.97,0,*58
1522706790.75,63916,8.5,72956.5,-8.81,-25.71,-22.11,0,*5B
1522706792.0,63917,8.5,72954.5,-8.83,-25.87,-22.17,0,*57
1522706793.26,63918,8.5,72956.3,-8.83,-25.71,-21.97,0,*5A
1522706794.52,63919,8.5,72962.8,-8.81,-25.81,-22.03,0,*58
1522706795.73,63920,8.5,72960.3,-8.85,-25.87,-22.11,0,*53
1522706796.94,63921,8.5,72960.0,-8.85,-26.07,-22.27,0,*5C
1522706798.21,63922,8.5,72962.0,-8.85,-25.97,-22.17,0,*56
1522706799.42,63923,8.5,72956.5,-8.85,-25.87,-22.11,0,*50
1522706800.69,63924,8.5,72956.8,-8.85,-25.55,-21.83,0,*50
1522706801.93,63925,8.5,72956.3,-8.85,-25.71,-22.11,0,*5F
1522706803.17,63926,8.5,72958.3,-8.87,-25.87,-22.07,0,*50
1522706804.41,63927,8.5,72958.3,-8.85,-25.71,-21.93,0,*54
1522706805.7,63928,8.5,72956.0,-8.87,-25.75,-21.97,0,*59
1522706806.96,63929,8.5,72952.8,-8.87,-25.75,-22.07,0,*52
1522706808.22,63930,8.5,72956.3,-8.87,-25.91,-22.17,0,*51
1522706809.46,63931,8.5,72962.0,-8.85,-25.81,-22.11,0,*55
1522706810.69,63932,8.5,72960.0,-8.87,-25.87,-22.07,0,*55
1522706811.9,63933,8.5,72958.0,-8.89,-25.91,-22.07,0,*5D
1522706813.16,63934,8.5,72956.8,-8.89,-25.45,-21.83,0,*5C
1522706814.41,63935,8.5,72964.5,-8.89,-25.45,-21.83,0,*5D
1522706815.68,63936,8.5,72968.5,-8.89,-25.55,-21.87,0,*5B
1522706816.91,63937,8.5,72966.5,-8.89,-25.29,-21.73,0,*5A
1522706818.14,63938,8.5,72954.0,-8.89,-24.93,-21.27,0,*54
1522706819.37,63939,8.5,72952.3,-8.89,-25.39,-21.83,0,*5A
1522706820.63,63940,8.5,72966.0,-8.89,-25.29,-21.57,0,*5C
1522706821.89,63941,8.5,72954.0,-8.91,-25.49,-21.87,0,*5F
1522706823.16,63942,8.5,72952.3,-8.89,-25.55,-21.87,0,*58
1522706824.41,63943,8.5,72964.8,-8.89,-25.45,-21.67,0,*56
1522706825.65,63944,8.5,72952.0,-8.89,-24.93,-21.27,0,*5F
1522706826.91,63945,8.5,72950.8,-8.87,-25.09,-21.27,0,*52
1522706828.2,63946,8.5,72958.8,-8.87,-24.87,-21.23,0,*52
1522706829.46,63947,8.5,72954.8,-8.87,-24.93,-21.23,0,*56
1522706830.69,63948,8.5,72966.3,-8.87,-25.23,-21.73,0,*56
1522706831.93,63949,8.5,72964.0,-8.85,-24.87,-21.17,0,*58
1522706833.16,63950,8.5,72952.5,-8.87,-25.09,-21.39,0,*59
1522706834.37,63951,8.5,72966.8,-8.85,-25.23,-21.47,0,*5B
1522706835.63,63952,8.5,72962.3,-8.87,-25.39,-21.57,0,*50
1522706836.86,63953,8.5,72962.0,-8.85,-25.19,-21.53,0,*55
1522706838.09,63954,8.5,72968.0,-8.85,-25.35,-21.53,0,*5C
1522706839.33,63955,8.5,72970.8,-8.85,-25.39,-21.53,0,*51
1522706840.53,63956,8.5,72968.8,-8.83,-25.35,-21.47,0,*5D
1522706841.74,63957,8.5,72966.8,-8.85,-25.23,-21.47,0,*5D
1522706843.0,63958,8.5,72962.3,-8.87,-25.39,-21.57,0,*5A
1522706844.21,63959,8.5,72968.0,-8.85,-25.39,-21.63,0,*5E
1522706845.44,63960,8.5,72962.8,-8.87,-25.39,-21.73,0,*57
1522706846.66,63961,8.5,72968.8,-8.85,-25.45,-21.73,0,*5F
1522706847.92,63962,8.5,72960.8,-8.87,-25.23,-21.67,0,*5B
1522706849.15,63963,8.5,72966.8,-8.87,-25.23,-21.43,0,*5C
1522706850.45,63964,8.5,72976.8,-8.87,-25.03,-21.23,0,*5F
1522706851.7,63965,8.5,72974.3,-8.87,-24.61,-20.89,0,*5A
1522706852.94,63966,8.5,72964.5,-8.85,-24.87,-21.17,0,*55
1522706854.18,63967,8.5,72970.8,-8.85,-24.67,-20.93,0,*57
1522706855.42,63968,8.5,72966.0,-8.85,-24.67,-20.89,0,*53
1522706856.68,63969,8.5,72964.8,-8.85,-24.87,-21.33,0,*5C
1522706857.89,63970,8.5,72966.5,-8.85,-25.39,-21.63,0,*55
1522706859.16,63971,8.5,72964.5,-8.85,-25.55,-21.83,0,*50
1522706860.37,63972,8.5,72966.8,-8.83,-25.49,-21.77,0,*53
1522706861.61,63973,8.5,72968.0,-8.83,-25.03,-21.39,0,*56
1522706862.81,63974,8.5,72966.8,-8.83,-25.19,-21.47,0,*53
1522706864.02,63975,8.5,72964.0,-8.85,-25.35,-21.63,0,*5C
1522706865.25,63976,8.5,72964.8,-8.85,-25.19,-21.33,0,*54
1522706866.45,63977,8.5,72970.3,-8.83,-25.35,-21.63,0,*58
1522706867.72,63978,8.5,72962.8,-8.85,-25.55,-21.83,0,*59
1522706868.95,63979,8.5,72964.5,-8.87,-25.13,-21.43,0,*54
1522706870.16,63980,8.5,72968.0,-8.85,-25.19,-21.47,0,*5E
1522706871.4,63981,8.5,72968.0,-8.85,-25.55,-21.77,0,*54
1522706872.62,63982,8.5,72970.5,-8.85,-25.49,-21.77,0,*5A
1522706873.85,63983,8.5,72968.8,-8.85,-25.39,-21.67,0,*5D
1522706875.11,63984,8.5,72974.3,-8.87,-25.61,-21.97,0,*5A
1522706876.41,63985,8.5,72984.3,-8.87,-25.55,-21.87,0,*5D
1522706877.65,63986,8.5,72982.8,-8.87,-25.61,-21.93,0,*5C
1522706878.89,63987,8.5,72978.0,-8.85,-25.55,-21.93,0,*58
1522706880.15,63988,8.5,72974.8,-8.87,-25.75,-22.03,0,*5D
1522706881.42,63989,8.5,72980.8,-8.87,-25.71,-22.03,0,*58
1522706882.71,63990,8.5,72984.8,-8.87,-25.75,-21.97,0,*5A
1522706883.96,63991,8.5,72982.3,-8.87,-25.45,-21.73,0,*52
1522706885.19,63992,8.5,72974.8,-8.87,-25.87,-22.07,0,*5F
1522706886.45,63993,8.5,72972.5,-8.89,-25.45,-21.67,0,*5B
1522706887.71,63994,8.5,72972.8,-8.87,-25.87,-21.97,0,*53
1522706888.94,63995,8.5,72970.8,-8.89,-25.23,-21.53,0,*5A
1522706890.17,63996,8.5,72974.8,-8.91,-25.61,-21.77,0,*50
1522706891.4,63997,8.5,72970.0,-8.89,-25.29,-21.43,0,*53
1522706892.63,63998,8.5,72964.8,-8.89,-25.39,-21.57,0,*58
1522706893.86,63999,8.5,72960.3,-8.89,-25.29,-21.43,0,*5D
1522706895.13,64000,8.5,72970.8,-8.89,-25.55,-21.83,0,*54
1522706896.36,64001,8.5,72970.3,-8.87,-25.87,-22.07,0,*5B
1522706897.62,64002,8.5,72974.0,-8.87,-25.61,-21.97,0,*5A
1522706898.88,64003,8.5,72976.0,-8.91,-25.61,-21.87,0,*5D
1522706900.12,64004,8.5,72976.3,-8.89,-25.75,-22.03,0,*59
1522706901.33,64005,8.5,72980.5,-8.89,-25.61,-21.73,0,*59
1522706902.58,64006,8.5,72974.0,-8.89,-25.45,-21.57,0,*5A
1522706903.81,64007,8.5,72968.8,-8.89,-25.39,-21.67,0,*53
1522706905.05,64008,8.5,72966.0,-8.91,-25.65,-21.93,0,*57
1522706906.3,64009,8.5,72962.8,-8.91,-25.81,-22.03,0,*56
1522706907.53,64010,8.5,72966.8,-8.89,-25.61,-21.97,0,*57
1522706908.8,64011,8.5,72966.8,-8.91,-25.71,-21.93,0,*5A
1522706910.02,64012,8.5,72966.5,-8.91,-25.35,-21.47,0,*50
1522706911.27,64013,8.5,72970.0,-8.91,-25.45,-21.63,0,*50
1522706912.52,64014,8.5,72966.3,-8.91,-25.19,-21.57,0,*59
1522706913.79,64015,8.5,72968.8,-8.91,-25.45,-21.57,0,*51
1522706914.99,64016,8.5,72964.8,-8.89,-25.23,-21.43,0,*5E